Weather History for Dublin, Ireland

Change the Weather History Date:

Friday, October 3, 2014

  Actual Average Record
Temperature  
Mean Temperature 56 °F -  
Max Temperature 63 °F 56 °F 68 °F (2011)
Min Temperature 48 °F 45 °F 37 °F (2008)
Degree Days  
Heating Degree Days 9    
Growing Degree Days 6 (Base 50)    
Moisture  
Dew Point 53 °F    
Average Humidity 88    
Maximum Humidity 100    
Minimum Humidity 67    
Precipitation  
Precipitation 0.59 in 0.09 in - ()
Sea Level Pressure  
Sea Level Pressure 29.93 in    
Wind  
Wind Speed 14 mph ()    
Max Wind Speed 27 mph    
Max Gust Speed 39 mph    
Visibility 7.0 miles    
Events Rain    
Averages and records for this station are not official NWS values.
T = Trace of Precipitation, MM = Missing Value Source: Averaged Metar Reports

Daily Weather History Graph

Daily Weather History Graph

Search for Another Location

Airport:

Trip Planner

Search our weather history database for the weather conditions in past years. The results will help you decide how hot, cold, wet, or windy it might be!

Date:

Astronomy

Oct. 03, 2014 Rise Set
Actual Time 7:30 AM IST 6:57 PM IST
Civil Twilight 6:55 AM IST 7:32 PM IST
Nautical Twilight 6:14 AM IST 8:12 PM IST
Astronomical Twilight 5:33 AM IST 8:53 PM IST
Moon 4:19 PM IST (10/3) 12:52 AM IST (10/3)
Length of Visible Light 12h 36m
Length of Day
11h 27m
Waxing Gibbous, 68% of the Moon is Illuminated
Oct 3
Waxing Gibbous
Oct 8
Full
Oct 15
Last Quarter
Oct 23
New
Oct 31
First Quarter

Hourly Weather History & Observations

Time (IST) Temp. Dew Point Humidity Pressure Visibility Wind Dir Wind Speed Gust Speed Precip Events Conditions
12:00 AM 59 °F 51 °F 67% 30.06 in 19 mi SSW 17.9 mph - -   Scattered Clouds
12:00 AM 59.0 °F 51.8 °F 77% 30.06 in 6.2 mi SSW 17.3 mph - N/A   Mostly Cloudy
12:30 AM 59.0 °F 51.8 °F 77% 30.04 in 6.2 mi SSW 19.6 mph - N/A   Mostly Cloudy
1:00 AM 59 °F 51 °F 67% 30.03 in 19 mi SW 17.9 mph - -   Scattered Clouds
1:00 AM 59.0 °F 51.8 °F 77% 30.04 in 6.2 mi SW 18.4 mph - N/A   Mostly Cloudy
1:30 AM 59.0 °F 51.8 °F 77% 30.01 in 6.2 mi SW 19.6 mph - N/A   Mostly Cloudy
2:00 AM 60 °F 52 °F 67% 30.02 in 19 mi SW 17.9 mph - -   Scattered Clouds
2:00 AM 59.0 °F 51.8 °F 77% 30.01 in 6.2 mi SW 18.4 mph - N/A   Mostly Cloudy
2:30 AM 59.0 °F 51.8 °F 77% 30.01 in 6.2 mi SW 23.0 mph 36.8 mph N/A   Mostly Cloudy
3:00 AM 60 °F 52 °F 67% 29.99 in 19 mi SW 24.6 mph - -   Scattered Clouds
3:00 AM 60.8 °F 51.8 °F 72% 29.98 in 6.2 mi SW 24.2 mph 35.7 mph N/A   Mostly Cloudy
3:30 AM 60.8 °F 51.8 °F 72% 29.95 in 6.2 mi SSW 23.0 mph - N/A   Mostly Cloudy
4:00 AM 60 °F 52 °F 69% 29.95 in 19 mi SW 26.8 mph - -   Scattered Clouds
4:00 AM 60.8 °F 51.8 °F 72% 29.95 in 6.2 mi SW 25.3 mph 38.0 mph N/A   Mostly Cloudy
4:30 AM 60.8 °F 51.8 °F 72% 29.95 in 6.2 mi SW 24.2 mph 39.1 mph N/A   Mostly Cloudy
5:00 AM 60 °F 53 °F 70% 29.96 in 19 mi SW 22.4 mph - -   Scattered Clouds
5:00 AM 60.8 °F 53.6 °F 77% 29.95 in 6.2 mi SW 23.0 mph 35.7 mph N/A   Mostly Cloudy
5:30 AM 60.8 °F 53.6 °F 77% 29.95 in 6.2 mi SW 23.0 mph 35.7 mph N/A   Mostly Cloudy
6:00 AM 61 °F 54 °F 70% 29.95 in 19 mi SW 20.1 mph - -   Partly Cloudy
6:00 AM 60.8 °F 53.6 °F 77% 29.95 in 6.2 mi SW 21.9 mph - N/A   Mostly Cloudy
6:30 AM 60.8 °F 55.4 °F 82% 29.95 in 6.2 mi SSW 18.4 mph 29.9 mph N/A   Mostly Cloudy
7:00 AM 62 °F 55 °F 71% 29.94 in 19 mi SSW 22.4 mph - -   Mostly Cloudy
7:00 AM 60.8 °F 55.4 °F 82% 29.92 in 6.2 mi SSW 20.7 mph 33.4 mph N/A   Mostly Cloudy
7:30 AM 60.8 °F 55.4 °F 82% 29.92 in 6.2 mi SSW 20.7 mph - N/A   Mostly Cloudy
8:00 AM 62 °F 56 °F 73% 29.93 in 19 mi SSW 20.1 mph - -   Partly Cloudy
8:00 AM 60.8 °F 55.4 °F 82% 29.92 in 6.2 mi SSW 18.4 mph - N/A   Mostly Cloudy
8:30 AM 62.6 °F 55.4 °F 77% 29.92 in 6.2 mi SSW 20.7 mph - N/A   Mostly Cloudy
9:00 AM 58 °F 56 °F 90% 29.96 in 2 mi SW 17.9 mph - - Rain Light Rain
9:00 AM 60.8 °F 57.2 °F 88% 29.95 in 2.5 mi SSW 17.3 mph - N/A Rain Light Rain
9:30 AM 55.4 °F 55.4 °F 100% 29.95 in 3.7 mi West 11.5 mph - N/A Rain Rain
10:00 AM 56 °F 54 °F 92% 29.97 in 5 mi West 6.7 mph - - Rain Light Rain
10:00 AM 55.4 °F 53.6 °F 94% 29.95 in 5.0 mi WNW 5.8 mph - N/A Rain Light Rain
10:30 AM 55.4 °F 53.6 °F 94% 29.98 in 2.5 mi West 11.5 mph - N/A Rain Light Rain
11:00 AM 56 °F 55 °F 95% 29.98 in 5 mi West 8.9 mph - - Rain Light Drizzle
11:00 AM 55.4 °F 55.4 °F 100% 29.98 in 4.3 mi West 9.2 mph - N/A   Light Drizzle
11:30 AM 57.2 °F 55.4 °F 94% 29.95 in 4.3 mi WSW 8.1 mph - N/A   Light Drizzle
12:00 PM 57 °F 56 °F 94% 29.96 in 4 mi SW 11.2 mph - - Rain Light Drizzle
12:00 PM 57.2 °F 55.4 °F 94% 29.95 in 3.1 mi SW 9.2 mph - N/A   Light Drizzle
12:30 PM 57.2 °F 55.4 °F 94% 29.95 in 5.0 mi SW 10.4 mph - N/A Rain Light Rain
1:00 PM 57 °F 56 °F 95% 29.96 in 2 mi WSW 8.9 mph - - Rain Light Rain
1:00 PM 57.2 °F 55.4 °F 94% 29.95 in 2.5 mi WSW 9.2 mph - N/A Rain Light Rain
1:30 PM 57.2 °F 55.4 °F 94% 29.95 in 3.7 mi SW 9.2 mph - N/A Rain Light Rain
2:00 PM 57 °F 56 °F 94% 29.94 in 5 mi WSW 8.9 mph - - Rain Light Rain
2:00 PM 57.2 °F 55.4 °F 94% 29.92 in 4.3 mi WSW 9.2 mph - N/A Rain Light Rain
2:30 PM 57.2 °F 55.4 °F 94% 29.92 in 5.0 mi West 5.8 mph - N/A Rain Light Rain
3:00 PM 57 °F 56 °F 95% 29.92 in 5 mi WSW 4.5 mph - - Rain Light Rain
3:00 PM 57.2 °F 55.4 °F 94% 29.92 in 5.0 mi WSW 4.6 mph - N/A Rain Light Rain
3:30 PM 57.2 °F 55.4 °F 94% 29.89 in 5.0 mi Variable 3.5 mph - N/A Rain Rain
4:00 PM 56 °F 55 °F 95% 29.90 in 4 mi NNW 8.9 mph - - Rain Light Rain
4:00 PM 55.4 °F 55.4 °F 100% 29.89 in 3.7 mi North 6.9 mph - N/A Rain Rain
4:30 PM 55.4 °F 53.6 °F 94% 29.89 in 3.7 mi WNW 12.7 mph - N/A Rain Light Rain
5:00 PM 53 °F 51 °F 91% 29.91 in 4 mi WNW 15.7 mph - - Rain Light Rain
5:00 PM 51.8 °F 51.8 °F 100% 29.89 in 4.3 mi WNW 16.1 mph - N/A Rain Light Rain
5:30 PM 50.0 °F 48.2 °F 94% 29.89 in 6.2 mi WNW 12.7 mph - N/A Rain Light Rain
6:00 PM 50 °F 49 °F 95% 29.90 in 5 mi West 6.7 mph - - Rain Rain
6:00 PM 50.0 °F 50.0 °F 100% 29.89 in 5.0 mi West 4.6 mph - N/A Rain Rain
6:30 PM 50.0 °F 50.0 °F 100% 29.89 in 5.0 mi WNW 5.8 mph - N/A Rain Rain
7:00 PM 50 °F 49 °F 95% 29.89 in 7 mi West 6.7 mph - - Rain Light Rain
7:00 PM 50.0 °F 50.0 °F 100% 29.89 in 6.2 mi West 6.9 mph - N/A Rain Light Rain
7:30 PM 50.0 °F 50.0 °F 100% 29.86 in 6.2 mi WNW 5.8 mph - N/A Rain Light Rain
8:00 PM 50 °F 49 °F 96% 29.86 in 7 mi Calm Calm - - Rain Light Rain
8:00 PM 50.0 °F 50.0 °F 100% 29.86 in 6.2 mi Calm Calm - N/A Rain Light Rain
8:30 PM 50.0 °F 50.0 °F 100% 29.83 in 6.2 mi North 1.2 mph - N/A Rain Light Rain
9:00 PM 50 °F 50 °F 100% 29.86 in 7 mi SW 2.2 mph - - Rain Light Rain
9:00 PM 50.0 °F 50.0 °F 100% 29.83 in 6.2 mi Variable 2.3 mph - N/A Rain Light Rain
9:30 PM 50.0 °F 48.2 °F 94% 29.83 in 6.2 mi Variable 3.5 mph - N/A Rain Light Rain
10:00 PM 50 °F 49 °F 95% 29.83 in 7 mi NNW 4.5 mph - - Rain Light Rain
10:00 PM 50.0 °F 50.0 °F 100% 29.83 in 6.2 mi NNW 3.5 mph - N/A Rain Light Rain
10:30 PM 50.0 °F 48.2 °F 94% 29.80 in 6.2 mi NW 3.5 mph - N/A Rain Light Rain
11:00 PM 49 °F 49 °F 99% 29.83 in 9 mi West 4.5 mph - - Rain Light Rain
11:00 PM 50.0 °F 48.2 °F 94% 29.80 in 6.2 mi West 2.3 mph - N/A Rain Light Rain
11:30 PM 48.2 °F 48.2 °F 100% 29.80 in 6.2 mi WNW 3.5 mph - N/A Rain Light Rain